Location: Newark
(25.4617°S, 30.9297°E)
Time: 15:02:08
(UTC+00:00)

N. Korean satellite - Visible Passes

Search period start: 17 October 2019 00:00
Search period end: 27 October 2019 00:00
Orbit: 455 x 508 km, 97.2° (Epoch: 16 October)

Date Brightness Start Highest point End Pass type
(mag) Time Alt. Az. Time Alt. Az. Time Alt. Az.
17 Oct 9.8 16:23:52 10° SSW 16:26:34 20° WSW 16:29:12 10° WNW visible
18 Oct 8.6 02:50:12 10° NE 02:53:37 36° ESE 02:57:06 10° S visible
19 Oct 10.1 02:26:08 10° ENE 02:28:30 16° ESE 02:30:53 10° SSE visible
20 Oct 10.5 16:42:44 10° SW 16:43:54 11° WSW 16:45:03 10° W visible
22 Oct 9.2 02:42:39 10° NE 02:45:53 28° ESE 02:49:08 10° SSE visible
23 Oct 10.4 02:19:03 10° E 02:20:46 13° ESE 02:22:29 10° SE visible
24 Oct 10.2 16:34:09 10° SW 16:36:07 14° WSW 16:38:04 10° WNW visible
26 Oct 9.7 02:35:10 10° NE 02:38:06 22° ESE 02:41:02 10° SSE visible
